owner,sensor,date,latitude,longitude,vertical_datum,sea_water_practical_salinity,qcFlag 
TCOON,ioos:station:TCOON:170:1,2019-05-01T00:30:00Z,27.2970,-97.4049,0.0,33.1,11111222 
TCOON,ioos:station:TCOON:170:1,2019-05-01T01:30:00Z,27.2970,-97.4049,0.0,33.2,11111222 
TCOON,ioos:station:TCOON:170:1,2019-05-01T02:30:00Z,27.2970,-97.4049,0.0,33.5,11111222 
TCOON,ioos:station:TCOON:170:1,2019-05-01T03:30:00Z,27.2970,-97.4049,0.0,34.1,11111222 
TCOON,ioos:station:TCOON:170:1,2019-05-01T04:30:00Z,27.2970,-97.4049,0.0,34.7,11111222 
TCOON,ioos:station:TCOON:170:1,2019-05-01T06:00:00Z,27.2970,-97.4049,0.0,35.0,11111222 
TCOON,ioos:station:TCOON:170:1,2019-05-01T06:30:00Z,27.2970,-97.4049,0.0,34.8,11111222 
TCOON,ioos:station:TCOON:170:1,2019-05-01T07:30:00Z,27.2970,-97.4049,0.0,34.8,11111222 
TCOON,ioos:station:TCOON:170:1,2019-05-01T08:30:00Z,27.2970,-97.4049,0.0,34.8,11111222 
TCOON,ioos:station:TCOON:170:1,2019-05-01T09:30:00Z,27.2970,-97.4049,0.0,34.7,11111222 
TCOON,ioos:station:TCOON:170:1,2019-05-01T10:30:00Z,27.2970,-97.4049,0.0,34.5,11111222 
TCOON,ioos:station:TCOON:170:1,2019-05-01T11:30:00Z,27.2970,-97.4049,0.0,33.8,11111222 
TCOON,ioos:station:TCOON:170:1,2019-05-01T12:30:00Z,27.2970,-97.4049,0.0,32.9,11111222 
TCOON,ioos:station:TCOON:170:1,2019-05-01T13:30:00Z,27.2970,-97.4049,0.0,32.6,11111222 
TCOON,ioos:station:TCOON:170:1,2019-05-01T14:30:00Z,27.2970,-97.4049,0.0,32.2,11111222 
TCOON,ioos:station:TCOON:170:1,2019-05-01T15:30:00Z,27.2970,-97.4049,0.0,33.6,11111222 
TCOON,ioos:station:TCOON:170:1,2019-05-01T16:30:00Z,27.2970,-97.4049,0.0,33.9,11111222 
TCOON,ioos:station:TCOON:170:1,2019-05-01T17:30:00Z,27.2970,-97.4049,0.0,34.1,11111222 
TCOON,ioos:station:TCOON:170:1,2019-05-01T18:30:00Z,27.2970,-97.4049,0.0,33.9,11111222 
TCOON,ioos:station:TCOON:170:1,2019-05-01T19:30:00Z,27.2970,-97.4049,0.0,33.6,11111222 
TCOON,ioos:station:TCOON:170:1,2019-05-01T20:30:00Z,27.2970,-97.4049,0.0,33.7,11111222 
TCOON,ioos:station:TCOON:170:1,2019-05-01T21:30:00Z,27.2970,-97.4049,0.0,33.7,11111222 
TCOON,ioos:station:TCOON:170:1,2019-05-01T22:30:00Z,27.2970,-97.4049,0.0,33.6,11111222 
TCOON,ioos:station:TCOON:170:1,2019-05-01T23:30:00Z,27.2970,-97.4049,0.0,33.5,11111222 
TCOON,ioos:station:TCOON:170:1,2019-05-02T00:30:00Z,27.2970,-97.4049,0.0,33.8,11111222 
TCOON,ioos:station:TCOON:170:1,2019-05-02T01:30:00Z,27.2970,-97.4049,0.0,33.6,11111222 
TCOON,ioos:station:TCOON:170:1,2019-05-02T02:30:00Z,27.2970,-97.4049,0.0,33.6,11111222 
TCOON,ioos:station:TCOON:170:1,2019-05-02T03:30:00Z,27.2970,-97.4049,0.0,33.4,11111222 
TCOON,ioos:station:TCOON:170:1,2019-05-02T05:30:00Z,27.2970,-97.4049,0.0,34.2,11111222 
TCOON,ioos:station:TCOON:170:1,2019-05-02T06:30:00Z,27.2970,-97.4049,0.0,34.9,11111222 
TCOON,ioos:station:TCOON:170:1,2019-05-02T07:30:00Z,27.2970,-97.4049,0.0,34.4,11111222 
TCOON,ioos:station:TCOON:170:1,2019-05-02T08:30:00Z,27.2970,-97.4049,0.0,34.3,11111222 
TCOON,ioos:station:TCOON:170:1,2019-05-02T09:30:00Z,27.2970,-97.4049,0.0,34.2,11111222 
TCOON,ioos:station:TCOON:170:1,2019-05-02T10:30:00Z,27.2970,-97.4049,0.0,34.2,11111222 
TCOON,ioos:station:TCOON:170:1,2019-05-02T11:30:00Z,27.2970,-97.4049,0.0,34.2,11111222 
TCOON,ioos:station:TCOON:170:1,2019-05-02T12:30:00Z,27.2970,-97.4049,0.0,34.1,11111222 
TCOON,ioos:station:TCOON:170:1,2019-05-02T13:30:00Z,27.2970,-97.4049,0.0,34.2,11111222 
TCOON,ioos:station:TCOON:170:1,2019-05-02T14:30:00Z,27.2970,-97.4049,0.0,33.7,11111222 
TCOON,ioos:station:TCOON:170:1,2019-05-02T15:30:00Z,27.2970,-97.4049,0.0,33.6,11111222 
TCOON,ioos:station:TCOON:170:1,2019-05-02T16:30:00Z,27.2970,-97.4049,0.0,34.3,11111222 
TCOON,ioos:station:TCOON:170:1,2019-05-02T17:30:00Z,27.2970,-97.4049,0.0,34.2,11111222 
TCOON,ioos:station:TCOON:170:1,2019-05-02T18:30:00Z,27.2970,-97.4049,0.0,34.0,11111222 
TCOON,ioos:station:TCOON:170:1,2019-05-02T19:30:00Z,27.2970,-97.4049,0.0,34.1,11111222 
TCOON,ioos:station:TCOON:170:1,2019-05-02T20:30:00Z,27.2970,-97.4049,0.0,34.5,11111222 
TCOON,ioos:station:TCOON:170:1,2019-05-02T21:30:00Z,27.2970,-97.4049,0.0,34.3,11111222 
TCOON,ioos:station:TCOON:170:1,2019-05-02T22:30:00Z,27.2970,-97.4049,0.0,34.6,11111222 
TCOON,ioos:station:TCOON:170:1,2019-05-02T23:30:00Z,27.2970,-97.4049,0.0,34.6,11111222 
TCOON,ioos:station:TCOON:170:1,2019-05-03T00:30:00Z,27.2970,-97.4049,0.0,34.5,11111222 
TCOON,ioos:station:TCOON:170:1,2019-05-03T01:30:00Z,27.2970,-97.4049,0.0,34.5,11111222 
TCOON,ioos:station:TCOON:170:1,2019-05-03T02:30:00Z,27.2970,-97.4049,0.0,34.6,11111222 
TCOON,ioos:station:TCOON:170:1,2019-05-03T03:30:00Z,27.2970,-97.4049,0.0,34.4,11111222 
TCOON,ioos:station:TCOON:170:1,2019-05-03T04:30:00Z,27.2970,-97.4049,0.0,34.4,11111222 
TCOON,ioos:station:TCOON:170:1,2019-05-03T05:30:00Z,27.2970,-97.4049,0.0,34.6,11111222 
TCOON,ioos:station:TCOON:170:1,2019-05-03T06:30:00Z,27.2970,-97.4049,0.0,34.6,11111222 
TCOON,ioos:station:TCOON:170:1,2019-05-03T07:30:00Z,27.2970,-97.4049,0.0,34.6,11111222 
TCOON,ioos:station:TCOON:170:1,2019-05-03T08:30:00Z,27.2970,-97.4049,0.0,34.4,11111222 
TCOON,ioos:station:TCOON:170:1,2019-05-03T09:30:00Z,27.2970,-97.4049,0.0,34.3,11111222 
TCOON,ioos:station:TCOON:170:1,2019-05-03T10:30:00Z,27.2970,-97.4049,0.0,34.5,11111222 
TCOON,ioos:station:TCOON:170:1,2019-05-03T11:30:00Z,27.2970,-97.4049,0.0,34.7,11111222 
TCOON,ioos:station:TCOON:170:1,2019-05-03T12:30:00Z,27.2970,-97.4049,0.0,34.5,11111222 
TCOON,ioos:station:TCOON:170:1,2019-05-03T13:30:00Z,27.2970,-97.4049,0.0,34.6,11111222 
TCOON,ioos:station:TCOON:170:1,2019-05-03T14:30:00Z,27.2970,-97.4049,0.0,34.5,11111222 
TCOON,ioos:station:TCOON:170:1,2019-05-03T15:30:00Z,27.2970,-97.4049,0.0,34.3,11111222 
TCOON,ioos:station:TCOON:170:1,2019-05-03T16:30:00Z,27.2970,-97.4049,0.0,34.4,11111222 
TCOON,ioos:station:TCOON:170:1,2019-05-03T17:30:00Z,27.2970,-97.4049,0.0,34.4,11111222 
TCOON,ioos:station:TCOON:170:1,2019-05-03T18:30:00Z,27.2970,-97.4049,0.0,34.4,11111222 
TCOON,ioos:station:TCOON:170:1,2019-05-03T19:30:00Z,27.2970,-97.4049,0.0,34.4,11111222 
TCOON,ioos:station:TCOON:170:1,2019-05-03T20:30:00Z,27.2970,-97.4049,0.0,34.5,11111222 
TCOON,ioos:station:TCOON:170:1,2019-05-03T21:30:00Z,27.2970,-97.4049,0.0,34.6,11111222 
TCOON,ioos:station:TCOON:170:1,2019-05-03T22:30:00Z,27.2970,-97.4049,0.0,34.9,11111222 
TCOON,ioos:station:TCOON:170:1,2019-05-03T23:30:00Z,27.2970,-97.4049,0.0,34.6,11111222 
TCOON,ioos:station:TCOON:170:1,2019-05-04T00:30:00Z,27.2970,-97.4049,0.0,34.4,11111222 
TCOON,ioos:station:TCOON:170:1,2019-05-04T01:30:00Z,27.2970,-97.4049,0.0,34.4,11111222 
TCOON,ioos:station:TCOON:170:1,2019-05-04T02:30:00Z,27.2970,-97.4049,0.0,34.4,11111222 
TCOON,ioos:station:TCOON:170:1,2019-05-04T03:30:00Z,27.2970,-97.4049,0.0,34.5,11111222 
TCOON,ioos:station:TCOON:170:1,2019-05-04T04:30:00Z,27.2970,-97.4049,0.0,34.4,11111222 
TCOON,ioos:station:TCOON:170:1,2019-05-04T05:30:00Z,27.2970,-97.4049,0.0,34.4,11111222 
TCOON,ioos:station:TCOON:170:1,2019-05-04T06:30:00Z,27.2970,-97.4049,0.0,34.2,11111222 
TCOON,ioos:station:TCOON:170:1,2019-05-04T07:30:00Z,27.2970,-97.4049,0.0,34.2,11111222 
TCOON,ioos:station:TCOON:170:1,2019-05-04T08:30:00Z,27.2970,-97.4049,0.0,34.2,11111222 
TCOON,ioos:station:TCOON:170:1,2019-05-04T09:30:00Z,27.2970,-97.4049,0.0,34.4,11111222 
TCOON,ioos:station:TCOON:170:1,2019-05-04T10:30:00Z,27.2970,-97.4049,0.0,34.2,11111222 
TCOON,ioos:station:TCOON:170:1,2019-05-04T13:30:00Z,27.2970,-97.4049,0.0,34.2,11111222 
TCOON,ioos:station:TCOON:170:1,2019-05-04T14:30:00Z,27.2970,-97.4049,0.0,33.9,11111222 
TCOON,ioos:station:TCOON:170:1,2019-05-04T15:30:00Z,27.2970,-97.4049,0.0,33.9,11111222 
TCOON,ioos:station:TCOON:170:1,2019-05-04T16:30:00Z,27.2970,-97.4049,0.0,33.8,11111222 
TCOON,ioos:station:TCOON:170:1,2019-05-04T17:30:00Z,27.2970,-97.4049,0.0,33.5,11111222 
TCOON,ioos:station:TCOON:170:1,2019-05-04T18:30:00Z,27.2970,-97.4049,0.0,33.6,11111222 
TCOON,ioos:station:TCOON:170:1,2019-05-04T19:30:00Z,27.2970,-97.4049,0.0,33.5,11111222 
TCOON,ioos:station:TCOON:170:1,2019-05-04T20:30:00Z,27.2970,-97.4049,0.0,33.5,11111222 
TCOON,ioos:station:TCOON:170:1,2019-05-04T21:30:00Z,27.2970,-97.4049,0.0,33.6,11111222 
TCOON,ioos:station:TCOON:170:1,2019-05-04T22:30:00Z,27.2970,-97.4049,0.0,33.6,11111222 
TCOON,ioos:station:TCOON:170:1,2019-05-04T23:30:00Z,27.2970,-97.4049,0.0,34.2,11111222 
TCOON,ioos:station:TCOON:170:1,2019-05-05T00:30:00Z,27.2970,-97.4049,0.0,34.1,11111222 
TCOON,ioos:station:TCOON:170:1,2019-05-05T10:30:00Z,27.2970,-97.4049,0.0,33.8,11111222 
TCOON,ioos:station:TCOON:170:1,2019-05-05T12:30:00Z,27.2970,-97.4049,0.0,33.8,11111222 
TCOON,ioos:station:TCOON:170:1,2019-05-05T14:30:00Z,27.2970,-97.4049,0.0,33.7,11111222 
TCOON,ioos:station:TCOON:170:1,2019-05-05T15:30:00Z,27.2970,-97.4049,0.0,33.7,11111222 
TCOON,ioos:station:TCOON:170:1,2019-05-05T16:30:00Z,27.2970,-97.4049,0.0,33.7,11111222 
TCOON,ioos:station:TCOON:170:1,2019-05-05T17:30:00Z,27.2970,-97.4049,0.0,33.7,11111222 
TCOON,ioos:station:TCOON:170:1,2019-05-05T18:30:00Z,27.2970,-97.4049,0.0,33.7,11111222 
TCOON,ioos:station:TCOON:170:1,2019-05-05T19:30:00Z,27.2970,-97.4049,0.0,33.8,11111222 
TCOON,ioos:station:TCOON:170:1,2019-05-05T20:30:00Z,27.2970,-97.4049,0.0,33.8,11111222 
TCOON,ioos:station:TCOON:170:1,2019-05-05T21:30:00Z,27.2970,-97.4049,0.0,33.9,11111222 
TCOON,ioos:station:TCOON:170:1,2019-05-05T22:30:00Z,27.2970,-97.4049,0.0,33.9,11111222 
TCOON,ioos:station:TCOON:170:1,2019-05-05T23:30:00Z,27.2970,-97.4049,0.0,33.9,11111222 
TCOON,ioos:station:TCOON:170:1,2019-05-06T00:30:00Z,27.2970,-97.4049,0.0,33.9,11111222 
TCOON,ioos:station:TCOON:170:1,2019-05-06T01:30:00Z,27.2970,-97.4049,0.0,33.6,11111222 
TCOON,ioos:station:TCOON:170:1,2019-05-06T03:30:00Z,27.2970,-97.4049,0.0,33.9,11111222 
TCOON,ioos:station:TCOON:170:1,2019-05-06T04:30:00Z,27.2970,-97.4049,0.0,34.0,11111222 
TCOON,ioos:station:TCOON:170:1,2019-05-06T05:30:00Z,27.2970,-97.4049,0.0,34.1,11111222 
TCOON,ioos:station:TCOON:170:1,2019-05-06T06:30:00Z,27.2970,-97.4049,0.0,34.0,11111222 
TCOON,ioos:station:TCOON:170:1,2019-05-06T07:30:00Z,27.2970,-97.4049,0.0,34.3,11111222 
TCOON,ioos:station:TCOON:170:1,2019-05-06T08:30:00Z,27.2970,-97.4049,0.0,34.3,11111222 
TCOON,ioos:station:TCOON:170:1,2019-05-06T09:30:00Z,27.2970,-97.4049,0.0,33.9,11111222 
TCOON,ioos:station:TCOON:170:1,2019-05-06T10:30:00Z,27.2970,-97.4049,0.0,33.9,11111222 
TCOON,ioos:station:TCOON:170:1,2019-05-06T11:30:00Z,27.2970,-97.4049,0.0,33.8,11111222 
TCOON,ioos:station:TCOON:170:1,2019-05-06T12:30:00Z,27.2970,-97.4049,0.0,33.7,11111222 
TCOON,ioos:station:TCOON:170:1,2019-05-06T13:30:00Z,27.2970,-97.4049,0.0,33.6,11111222 
TCOON,ioos:station:TCOON:170:1,2019-05-06T14:30:00Z,27.2970,-97.4049,0.0,33.6,11111222 
TCOON,ioos:station:TCOON:170:1,2019-05-06T15:30:00Z,27.2970,-97.4049,0.0,33.6,11111222 
TCOON,ioos:station:TCOON:170:1,2019-05-06T17:30:00Z,27.2970,-97.4049,0.0,33.6,11111222 
TCOON,ioos:station:TCOON:170:1,2019-05-06T21:30:00Z,27.2970,-97.4049,0.0,33.3,11111222 
TCOON,ioos:station:TCOON:170:1,2019-05-06T22:30:00Z,27.2970,-97.4049,0.0,33.2,11111222 
TCOON,ioos:station:TCOON:170:1,2019-05-06T23:30:00Z,27.2970,-97.4049,0.0,33.3,11111222 
TCOON,ioos:station:TCOON:170:1,2019-05-07T00:30:00Z,27.2970,-97.4049,0.0,33.3,11111222 
TCOON,ioos:station:TCOON:170:1,2019-05-07T01:30:00Z,27.2970,-97.4049,0.0,33.4,11111222 
TCOON,ioos:station:TCOON:170:1,2019-05-07T02:30:00Z,27.2970,-97.4049,0.0,33.3,11111222 
TCOON,ioos:station:TCOON:170:1,2019-05-07T03:30:00Z,27.2970,-97.4049,0.0,33.3,11111222 
TCOON,ioos:station:TCOON:170:1,2019-05-07T04:30:00Z,27.2970,-97.4049,0.0,33.4,11111222 
TCOON,ioos:station:TCOON:170:1,2019-05-07T05:30:00Z,27.2970,-97.4049,0.0,33.4,11111222 
TCOON,ioos:station:TCOON:170:1,2019-05-07T06:30:00Z,27.2970,-97.4049,0.0,33.4,11111222 
TCOON,ioos:station:TCOON:170:1,2019-05-07T07:30:00Z,27.2970,-97.4049,0.0,33.5,11111222 
TCOON,ioos:station:TCOON:170:1,2019-05-07T08:30:00Z,27.2970,-97.4049,0.0,33.3,11111222 
TCOON,ioos:station:TCOON:170:1,2019-05-07T09:30:00Z,27.2970,-97.4049,0.0,33.2,11111222 
TCOON,ioos:station:TCOON:170:1,2019-05-07T10:30:00Z,27.2970,-97.4049,0.0,33.2,11111222 
TCOON,ioos:station:TCOON:170:1,2019-05-07T11:30:00Z,27.2970,-97.4049,0.0,33.3,11111222 
TCOON,ioos:station:TCOON:170:1,2019-05-07T12:30:00Z,27.2970,-97.4049,0.0,33.3,11111222 
TCOON,ioos:station:TCOON:170:1,2019-05-07T13:30:00Z,27.2970,-97.4049,0.0,33.3,11111222 
TCOON,ioos:station:TCOON:170:1,2019-05-07T14:30:00Z,27.2970,-97.4049,0.0,33.3,11111222 
TCOON,ioos:station:TCOON:170:1,2019-05-07T15:30:00Z,27.2970,-97.4049,0.0,33.5,11111222 
TCOON,ioos:station:TCOON:170:1,2019-05-07T16:30:00Z,27.2970,-97.4049,0.0,33.5,11111222 
TCOON,ioos:station:TCOON:170:1,2019-05-07T17:30:00Z,27.2970,-97.4049,0.0,33.5,11111222 
TCOON,ioos:station:TCOON:170:1,2019-05-07T18:30:00Z,27.2970,-97.4049,0.0,33.6,11111222 
TCOON,ioos:station:TCOON:170:1,2019-05-07T19:30:00Z,27.2970,-97.4049,0.0,33.6,11111222 
TCOON,ioos:station:TCOON:170:1,2019-05-07T20:30:00Z,27.2970,-97.4049,0.0,33.5,11111222 
TCOON,ioos:station:TCOON:170:1,2019-05-07T21:30:00Z,27.2970,-97.4049,0.0,33.4,11111222 
TCOON,ioos:station:TCOON:170:1,2019-05-07T22:30:00Z,27.2970,-97.4049,0.0,33.4,11111222 
TCOON,ioos:station:TCOON:170:1,2019-05-07T23:30:00Z,27.2970,-97.4049,0.0,33.4,11111222 
TCOON,ioos:station:TCOON:170:1,2019-05-08T00:30:00Z,27.2970,-97.4049,0.0,33.4,11111222 
TCOON,ioos:station:TCOON:170:1,2019-05-08T01:30:00Z,27.2970,-97.4049,0.0,33.4,11111222 
TCOON,ioos:station:TCOON:170:1,2019-05-08T02:30:00Z,27.2970,-97.4049,0.0,33.4,11111222 
TCOON,ioos:station:TCOON:170:1,2019-05-08T03:30:00Z,27.2970,-97.4049,0.0,33.5,11111222 
TCOON,ioos:station:TCOON:170:1,2019-05-08T04:30:00Z,27.2970,-97.4049,0.0,33.4,11111222 
TCOON,ioos:station:TCOON:170:1,2019-05-08T05:30:00Z,27.2970,-97.4049,0.0,33.4,11111222 
TCOON,ioos:station:TCOON:170:1,2019-05-08T06:30:00Z,27.2970,-97.4049,0.0,33.4,11111222 
TCOON,ioos:station:TCOON:170:1,2019-05-08T07:30:00Z,27.2970,-97.4049,0.0,33.4,11111222 
TCOON,ioos:station:TCOON:170:1,2019-05-08T08:30:00Z,27.2970,-97.4049,0.0,33.4,11111222 
TCOON,ioos:station:TCOON:170:1,2019-05-08T09:30:00Z,27.2970,-97.4049,0.0,33.9,11111222 
TCOON,ioos:station:TCOON:170:1,2019-05-08T10:30:00Z,27.2970,-97.4049,0.0,34.0,11111222 
TCOON,ioos:station:TCOON:170:1,2019-05-08T11:30:00Z,27.2970,-97.4049,0.0,33.8,11111222 
TCOON,ioos:station:TCOON:170:1,2019-05-08T12:30:00Z,27.2970,-97.4049,0.0,33.6,11111222 
TCOON,ioos:station:TCOON:170:1,2019-05-08T13:30:00Z,27.2970,-97.4049,0.0,33.6,11111222 
TCOON,ioos:station:TCOON:170:1,2019-05-08T14:30:00Z,27.2970,-97.4049,0.0,34.0,11111222 
TCOON,ioos:station:TCOON:170:1,2019-05-08T15:30:00Z,27.2970,-97.4049,0.0,33.8,11111222 
TCOON,ioos:station:TCOON:170:1,2019-05-08T16:30:00Z,27.2970,-97.4049,0.0,33.7,11111222 
TCOON,ioos:station:TCOON:170:1,2019-05-08T17:30:00Z,27.2970,-97.4049,0.0,33.3,11111222 
TCOON,ioos:station:TCOON:170:1,2019-05-08T18:30:00Z,27.2970,-97.4049,0.0,33.2,11111222 
TCOON,ioos:station:TCOON:170:1,2019-05-08T19:30:00Z,27.2970,-97.4049,0.0,33.0,11111222 
TCOON,ioos:station:TCOON:170:1,2019-05-08T20:30:00Z,27.2970,-97.4049,0.0,33.1,11111222 
TCOON,ioos:station:TCOON:170:1,2019-05-08T21:30:00Z,27.2970,-97.4049,0.0,33.0,11111222 
TCOON,ioos:station:TCOON:170:1,2019-05-08T22:30:00Z,27.2970,-97.4049,0.0,33.0,11111222 
TCOON,ioos:station:TCOON:170:1,2019-05-08T23:30:00Z,27.2970,-97.4049,0.0,33.0,11111222 
TCOON,ioos:station:TCOON:170:1,2019-05-09T00:30:00Z,27.2970,-97.4049,0.0,33.3,11111222 
TCOON,ioos:station:TCOON:170:1,2019-05-09T01:30:00Z,27.2970,-97.4049,0.0,33.4,11111222 
TCOON,ioos:station:TCOON:170:1,2019-05-09T02:30:00Z,27.2970,-97.4049,0.0,33.4,11111222 
TCOON,ioos:station:TCOON:170:1,2019-05-09T03:30:00Z,27.2970,-97.4049,0.0,33.5,11111222 
TCOON,ioos:station:TCOON:170:1,2019-05-09T04:30:00Z,27.2970,-97.4049,0.0,33.5,11111222 
TCOON,ioos:station:TCOON:170:1,2019-05-09T05:30:00Z,27.2970,-97.4049,0.0,33.5,11111222 
TCOON,ioos:station:TCOON:170:1,2019-05-09T06:30:00Z,27.2970,-97.4049,0.0,33.5,11111222 
TCOON,ioos:station:TCOON:170:1,2019-05-09T07:30:00Z,27.2970,-97.4049,0.0,33.5,11111222 
TCOON,ioos:station:TCOON:170:1,2019-05-09T08:30:00Z,27.2970,-97.4049,0.0,33.5,11111222 
TCOON,ioos:station:TCOON:170:1,2019-05-09T09:30:00Z,27.2970,-97.4049,0.0,33.5,11111222 
TCOON,ioos:station:TCOON:170:1,2019-05-09T10:30:00Z,27.2970,-97.4049,0.0,33.6,11111222 
TCOON,ioos:station:TCOON:170:1,2019-05-09T11:30:00Z,27.2970,-97.4049,0.0,33.6,11111222 
TCOON,ioos:station:TCOON:170:1,2019-05-09T12:30:00Z,27.2970,-97.4049,0.0,33.7,11111222 
TCOON,ioos:station:TCOON:170:1,2019-05-09T13:30:00Z,27.2970,-97.4049,0.0,33.7,11111222 
TCOON,ioos:station:TCOON:170:1,2019-05-09T14:30:00Z,27.2970,-97.4049,0.0,33.7,11111222 
TCOON,ioos:station:TCOON:170:1,2019-05-09T15:30:00Z,27.2970,-97.4049,0.0,33.7,11111222 
TCOON,ioos:station:TCOON:170:1,2019-05-09T16:30:00Z,27.2970,-97.4049,0.0,33.7,11111222 
TCOON,ioos:station:TCOON:170:1,2019-05-09T17:30:00Z,27.2970,-97.4049,0.0,33.7,11111222 
TCOON,ioos:station:TCOON:170:1,2019-05-09T18:30:00Z,27.2970,-97.4049,0.0,33.7,11111222 
TCOON,ioos:station:TCOON:170:1,2019-05-09T19:30:00Z,27.2970,-97.4049,0.0,33.7,11111222 
TCOON,ioos:station:TCOON:170:1,2019-05-09T20:30:00Z,27.2970,-97.4049,0.0,33.7,11111222 
TCOON,ioos:station:TCOON:170:1,2019-05-09T21:30:00Z,27.2970,-97.4049,0.0,33.7,11111222 
TCOON,ioos:station:TCOON:170:1,2019-05-09T22:30:00Z,27.2970,-97.4049,0.0,33.7,11111222 
TCOON,ioos:station:TCOON:170:1,2019-05-09T23:30:00Z,27.2970,-97.4049,0.0,33.7,11111222 
TCOON,ioos:station:TCOON:170:1,2019-05-10T00:30:00Z,27.2970,-97.4049,0.0,33.8,11111222 
TCOON,ioos:station:TCOON:170:1,2019-05-10T01:30:00Z,27.2970,-97.4049,0.0,33.8,11111222 
TCOON,ioos:station:TCOON:170:1,2019-05-10T02:30:00Z,27.2970,-97.4049,0.0,33.8,11111222 
TCOON,ioos:station:TCOON:170:1,2019-05-10T03:30:00Z,27.2970,-97.4049,0.0,33.9,11111222 
TCOON,ioos:station:TCOON:170:1,2019-05-10T04:30:00Z,27.2970,-97.4049,0.0,34.0,11111222 
TCOON,ioos:station:TCOON:170:1,2019-05-10T06:00:00Z,27.2970,-97.4049,0.0,34.0,11111222 
TCOON,ioos:station:TCOON:170:1,2019-05-10T06:30:00Z,27.2970,-97.4049,0.0,33.9,11111222 
TCOON,ioos:station:TCOON:170:1,2019-05-10T07:30:00Z,27.2970,-97.4049,0.0,33.8,11111222 
TCOON,ioos:station:TCOON:170:1,2019-05-10T08:30:00Z,27.2970,-97.4049,0.0,34.0,11111222 
TCOON,ioos:station:TCOON:170:1,2019-05-10T09:30:00Z,27.2970,-97.4049,0.0,33.9,11111222 
TCOON,ioos:station:TCOON:170:1,2019-05-10T10:30:00Z,27.2970,-97.4049,0.0,33.8,11111222 
TCOON,ioos:station:TCOON:170:1,2019-05-10T13:30:00Z,27.2970,-97.4049,0.0,33.0,11111222 
TCOON,ioos:station:TCOON:170:1,2019-05-10T14:30:00Z,27.2970,-97.4049,0.0,33.2,11111222 
TCOON,ioos:station:TCOON:170:1,2019-05-10T15:30:00Z,27.2970,-97.4049,0.0,33.3,11111222 
TCOON,ioos:station:TCOON:170:1,2019-05-10T16:30:00Z,27.2970,-97.4049,0.0,33.3,11111222 
TCOON,ioos:station:TCOON:170:1,2019-05-10T17:30:00Z,27.2970,-97.4049,0.0,33.4,11111222 
TCOON,ioos:station:TCOON:170:1,2019-05-10T18:30:00Z,27.2970,-97.4049,0.0,33.1,11111222 
TCOON,ioos:station:TCOON:170:1,2019-05-10T19:30:00Z,27.2970,-97.4049,0.0,33.2,11111222 
TCOON,ioos:station:TCOON:170:1,2019-05-10T20:30:00Z,27.2970,-97.4049,0.0,33.2,11111222 
TCOON,ioos:station:TCOON:170:1,2019-05-10T21:30:00Z,27.2970,-97.4049,0.0,33.3,11111222 
TCOON,ioos:station:TCOON:170:1,2019-05-10T22:30:00Z,27.2970,-97.4049,0.0,33.4,11111222 
TCOON,ioos:station:TCOON:170:1,2019-05-10T23:30:00Z,27.2970,-97.4049,0.0,33.3,11111222 
TCOON,ioos:station:TCOON:170:1,2019-05-11T00:30:00Z,27.2970,-97.4049,0.0,33.3,11111222 
TCOON,ioos:station:TCOON:170:1,2019-05-11T01:30:00Z,27.2970,-97.4049,0.0,33.0,11111222 
TCOON,ioos:station:TCOON:170:1,2019-05-11T02:30:00Z,27.2970,-97.4049,0.0,32.6,11111222 
TCOON,ioos:station:TCOON:170:1,2019-05-11T03:30:00Z,27.2970,-97.4049,0.0,32.4,11111222 
TCOON,ioos:station:TCOON:170:1,2019-05-11T04:30:00Z,27.2970,-97.4049,0.0,32.3,11111222 
TCOON,ioos:station:TCOON:170:1,2019-05-11T05:30:00Z,27.2970,-97.4049,0.0,32.1,11111222 
TCOON,ioos:station:TCOON:170:1,2019-05-11T06:30:00Z,27.2970,-97.4049,0.0,32.2,11111222 
TCOON,ioos:station:TCOON:170:1,2019-05-11T07:30:00Z,27.2970,-97.4049,0.0,32.1,11111222 
TCOON,ioos:station:TCOON:170:1,2019-05-11T08:30:00Z,27.2970,-97.4049,0.0,31.8,11111222 
TCOON,ioos:station:TCOON:170:1,2019-05-11T09:30:00Z,27.2970,-97.4049,0.0,31.7,11111222 
TCOON,ioos:station:TCOON:170:1,2019-05-11T10:30:00Z,27.2970,-97.4049,0.0,31.6,11111222 
TCOON,ioos:station:TCOON:170:1,2019-05-11T11:30:00Z,27.2970,-97.4049,0.0,31.6,11111222 
TCOON,ioos:station:TCOON:170:1,2019-05-11T12:30:00Z,27.2970,-97.4049,0.0,31.6,11111222 
TCOON,ioos:station:TCOON:170:1,2019-05-13T13:30:00Z,27.2970,-97.4049,0.0,31.7,11111222 
TCOON,ioos:station:TCOON:170:1,2019-05-13T14:30:00Z,27.2970,-97.4049,0.0,31.6,11111222 
TCOON,ioos:station:TCOON:170:1,2019-05-13T15:30:00Z,27.2970,-97.4049,0.0,31.9,11111222 
TCOON,ioos:station:TCOON:170:1,2019-05-13T16:30:00Z,27.2970,-97.4049,0.0,31.8,11111222 
TCOON,ioos:station:TCOON:170:1,2019-05-13T17:30:00Z,27.2970,-97.4049,0.0,31.8,11111222 
TCOON,ioos:station:TCOON:170:1,2019-05-13T18:30:00Z,27.2970,-97.4049,0.0,31.8,11111222 
TCOON,ioos:station:TCOON:170:1,2019-05-13T19:30:00Z,27.2970,-97.4049,0.0,31.9,11111222 
TCOON,ioos:station:TCOON:170:1,2019-05-13T20:30:00Z,27.2970,-97.4049,0.0,31.6,11111222 
TCOON,ioos:station:TCOON:170:1,2019-05-13T21:30:00Z,27.2970,-97.4049,0.0,31.6,11111222 
TCOON,ioos:station:TCOON:170:1,2019-05-13T22:30:00Z,27.2970,-97.4049,0.0,31.5,11111222 
TCOON,ioos:station:TCOON:170:1,2019-05-13T23:30:00Z,27.2970,-97.4049,0.0,31.4,11111222 
TCOON,ioos:station:TCOON:170:1,2019-05-14T00:30:00Z,27.2970,-97.4049,0.0,31.4,11111222 
TCOON,ioos:station:TCOON:170:1,2019-05-14T01:30:00Z,27.2970,-97.4049,0.0,31.4,11111222 
TCOON,ioos:station:TCOON:170:1,2019-05-14T02:30:00Z,27.2970,-97.4049,0.0,31.4,11111222 
TCOON,ioos:station:TCOON:170:1,2019-05-14T03:30:00Z,27.2970,-97.4049,0.0,31.3,11111222 
TCOON,ioos:station:TCOON:170:1,2019-05-14T04:30:00Z,27.2970,-97.4049,0.0,31.3,11111222 
TCOON,ioos:station:TCOON:170:1,2019-05-14T05:30:00Z,27.2970,-97.4049,0.0,31.4,11111222 
TCOON,ioos:station:TCOON:170:1,2019-05-14T06:30:00Z,27.2970,-97.4049,0.0,31.6,11111222 
TCOON,ioos:station:TCOON:170:1,2019-05-14T07:30:00Z,27.2970,-97.4049,0.0,31.8,11111222 
TCOON,ioos:station:TCOON:170:1,2019-05-14T08:30:00Z,27.2970,-97.4049,0.0,32.0,11111222 
TCOON,ioos:station:TCOON:170:1,2019-05-14T09:30:00Z,27.2970,-97.4049,0.0,32.2,11111222 
TCOON,ioos:station:TCOON:170:1,2019-05-14T10:30:00Z,27.2970,-97.4049,0.0,32.3,11111222 
TCOON,ioos:station:TCOON:170:1,2019-05-14T11:30:00Z,27.2970,-97.4049,0.0,32.3,11111222 
TCOON,ioos:station:TCOON:170:1,2019-05-14T12:30:00Z,27.2970,-97.4049,0.0,32.2,11111222 
TCOON,ioos:station:TCOON:170:1,2019-05-14T13:30:00Z,27.2970,-97.4049,0.0,32.3,11111222 
TCOON,ioos:station:TCOON:170:1,2019-05-14T14:30:00Z,27.2970,-97.4049,0.0,32.3,11111222 
TCOON,ioos:station:TCOON:170:1,2019-05-14T15:30:00Z,27.2970,-97.4049,0.0,32.0,11111222 
TCOON,ioos:station:TCOON:170:1,2019-05-14T16:30:00Z,27.2970,-97.4049,0.0,31.8,11111222 
TCOON,ioos:station:TCOON:170:1,2019-05-14T17:30:00Z,27.2970,-97.4049,0.0,31.9,11111222 
TCOON,ioos:station:TCOON:170:1,2019-05-14T18:30:00Z,27.2970,-97.4049,0.0,32.1,11111222 
TCOON,ioos:station:TCOON:170:1,2019-05-14T19:30:00Z,27.2970,-97.4049,0.0,32.0,11111222 
TCOON,ioos:station:TCOON:170:1,2019-05-14T20:30:00Z,27.2970,-97.4049,0.0,32.1,11111222 
TCOON,ioos:station:TCOON:170:1,2019-05-14T21:30:00Z,27.2970,-97.4049,0.0,32.0,11111222 
TCOON,ioos:station:TCOON:170:1,2019-05-14T22:30:00Z,27.2970,-97.4049,0.0,32.0,11111222 
TCOON,ioos:station:TCOON:170:1,2019-05-14T23:30:00Z,27.2970,-97.4049,0.0,31.8,11111222 
TCOON,ioos:station:TCOON:170:1,2019-05-15T00:30:00Z,27.2970,-97.4049,0.0,31.7,11111222 
TCOON,ioos:station:TCOON:170:1,2019-05-15T01:30:00Z,27.2970,-97.4049,0.0,31.7,11111222 
TCOON,ioos:station:TCOON:170:1,2019-05-15T02:30:00Z,27.2970,-97.4049,0.0,31.7,11111222 
TCOON,ioos:station:TCOON:170:1,2019-05-15T03:30:00Z,27.2970,-97.4049,0.0,32.0,11111222 